Location: Poughquag
(41.6090°N, 73.6820°W)
Time: 13:16:34
(UTC-04:00)

Vanguard 3 - Pass Details

Date: 06 June 2020
Orbit: 510 x 3261 km, 33.3° (Epoch: 05 July)

Event Time Altitude Azimuth Distance (km) Brightness Sun altitude
Rises 22:03:29 0° 182° (S) 6,628 11.4 -14.5°
Enters shadow 22:06:18 - 175° (S) 6,338 11.2 -14.9°
Exits shadow 22:23:21 15° 122° (ESE) 5,734 10.9 -16.8°
Drops below altitude 10° 22:29:48 10° 103° (ESE) 6,098 11.2 -17.5°
Sets 22:37:08 0° 85° (E) 6,842 11.6 -18.3°
